Home   Weather   Doha   Past weeks

Flag for Qatar Past Weather in Doha, Qatar — Yesterday and Last 2 Weeks

Now
84 °F

Clear.


Feels Like: 83 °F
Forecast: 77 / 100 °F
Wind: 12 mph from North

Location: Doha International Airport

Current Time: Apr 25, 2017 at 7:51:35 pm

Latest Report: Apr 25, 2017 at 7:00 pm


Visibility: 10 mi

Pressure: 29.77 "Hg

Humidity: 35%

Dew Point: 54 °F

Location of DohaLocation

Past Weather in Doha — Graph

°F

Doha Temperature Yesterday

Maximum temperature yesterday: 99 °F (at 3:00 pm)
Minimum temperature yesterday: 75 °F (at 6:00 am)
Average temperature yesterday: 86 °F

High & Low Weather Summary for the Past Weeks

 TemperatureHumidityPressure
High106 °F (Apr 15, 12:00 pm)74% (Apr 13, 6:00 am)29.92 "Hg (Apr 13, 6:00 am)
Low75 °F (Apr 15, 4:00 am)10% (Apr 15, 12:00 pm)29.68 "Hg (Apr 16, 1:00 am)
Average86 °F40%29.80 "Hg
* Reported Apr 10 6:00 pm — Apr 25 6:00 pm, Doha, Weather by CustomWeather, © 2017

Note: Actual official high and low records may vary slightly from our data, if they occured in-between our weather recording intervals... More about our weather records

Advertising

Doha Weather History for the Previous 24 Hours

Scroll right to see more
 ConditionsComfort  
Time TempWeatherWind HumidityBarometerVisibility
6:00 pm
Tue, Apr 25
86 °FClear.8 mph40%29.74 "Hg10 mi
5:00 pm86 °FSunny.12 mph38%29.74 "Hg10 mi
4:00 pm90 °FSunny.9 mph41%29.74 "Hg10 mi
3:00 pm90 °FPassing clouds.9 mph43%29.74 "HgN/A
2:00 pm91 °FSunny.9 mph41%29.74 "Hg10 mi
1:00 pm93 °FSunny.10 mph39%29.77 "Hg10 mi
12:00 pm100 °FPassing clouds.10 mph27%29.77 "HgN/A
11:00 am100 °FClear.6 mph13%29.77 "Hg5 mi
10:00 am97 °FClear.5 mph20%29.77 "Hg6 mi
9:00 am91 °FSunny.5 mph30%29.77 "Hg10 mi
8:00 am86 °FSunny.7 mph43%29.77 "Hg10 mi
7:00 am82 °FPassing clouds.6 mph51%29.77 "HgN/A
5:00 am81 °FClear.3 mph48%29.71 "Hg10 mi
4:00 am81 °FClear.2 mph45%29.71 "Hg10 mi
3:00 am79 °FClear.2 mph54%29.71 "Hg10 mi
2:00 am79 °FClear.1 mph51%29.71 "Hg10 mi
1:00 am79 °FClear.1 mph58%29.74 "Hg10 mi
12:00 am79 °FClear.5 mph58%29.74 "Hg10 mi
11:00 pm
Mon, Apr 24
81 °FClear.2 mph51%29.77 "Hg10 mi
10:00 pm81 °FClear.3 mph51%29.77 "Hg10 mi
9:00 pm82 °FClear.5 mph48%29.77 "Hg10 mi
8:00 pm84 °FPassing clouds.3 mph29%29.77 "HgN/A
7:00 pm86 °FClear.6 mph19%29.74 "Hg10 mi
Weather by CustomWeather, © 2017

See weather overviewHow to use our weather pages